Regional Weather Roundup
Issued by NWS

Home | Current Version | Previous Version | Text Only | Print | Product List | Glossary Off
Versions: 1 2 3 4 5 6 7 8 9 10 11 12 13 14 15 16 17 18 19 20 21 22 23 24 25 26 27 28 29 30 31 32 33 34 35 36 37 38 39 40 41 42 43 44 45 46 47 48 49 50

000
ASUS45 KTFX 272204
RWRMT
MONTANA HOURLY WEATHER ROUNDUP
NATIONAL WEATHER SERVICE GREAT FALLS MT
304 PM MST THU NOV 27 2014

NOTE: "FAIR" INDICATES FEW OR NO CLOUDS BELOW 12000 FEET WITH NO
SIGNIFICANT WEATHER AND/OR OBSTRUCTIONS TO VISIBILITY.

* THESE STATIONS ARE NOT UNDER NWS QUALITY CONTROL. THEY DO NOT
   REPORT WEATHER SUCH AS PRECIPITATION OR FOG.

MTZ001>007-043-272300-
WEST OF THE DIVIDE
CITY           SKY/WX    TMP DP  RH WIND       PRES   REMARKS
KALISPELL      LGT RAIN  41  36  82 VRB5      29.81F
MISSOULA       CLOUDY    57  37  47 CALM      29.88F
BUTTE          CLOUDY    45  30  56 S3        29.97F
MULLAN PASS    LGT RAIN  36  36 100 SW12G24   29.88F WCI  28
* ESSEX        N/A       36  35  96 E1         N/A
* LINCOLN      N/A       43  35  73 NE2        N/A
* LOOKOUT PASS N/A       41  38  89 SE6G15     N/A
* POLSON       N/A       50  37  61 SW5G14     N/A
* RONAN APT    PTCLDY    50  41  71 N/A        N/A
* SEELEY LAKE  N/A       39  37  93 NE2G7      N/A
* THOMP F APT  PTCLDY    43  28  56 NE6G13     N/A
* YAAK HILL    N/A       45  43  93 E1         N/A
$$

MTZ008-052>055-272300-
SOUTHWEST MONTANA
CITY           SKY/WX    TMP DP  RH WIND       PRES   REMARKS
BOZEMAN        CLOUDY    52  30  43 SE7       29.94F
DILLON         CLOUDY    54  30  40 SW21G26   30.00F
* W YELLOWSTON PTCLDY    40  30  68 SW6G16     N/A   WCI  36
* ENNIS APT    PTCLDY    55  27  34 S9G28      N/A
* THREE FORKS  PTCLDY    52  -9   7 N/A        N/A
* BOULDER HILL N/A       50  25  38 S12G20     N/A
* MONIDA PASS  N/A       37  29  73 SE14       N/A   WCI  28
* RAYNOLDS PAS N/A       39  21  48 SE18G23    N/A   WCI  30
* WHITEHALL    N/A       60  29  31 SW13G25    N/A
* WISE RIVER   N/A       53  31  43 NW10G18    N/A
$$

MTZ009>010-012-014-046-048-049-054-272300-
EAST SLOPES AND CENTRAL MONTANA
CITY           SKY/WX    TMP DP  RH WIND       PRES   REMARKS
CUT BANK       SUNNY     48  36  63 W38G46    29.67R
GREAT FALLS    PTCLDY    57  34  42 SW28G38   29.74R
HELENA         PTCLDY    50  34  54 SE6       29.85F
MALMSTROM AFB  PTCLDY    57  34  42 W26G43    29.75R
* DEARBORN     N/A       60  33  36 S18G27     N/A
* EAST GLACIER N/A       38  36  93 W23G30     N/A   WCI  27
* MONARCH      N/A       48  22  36 SW27G42    N/A
* PENDROY      N/A       52  30  43 W42G49     N/A
* ROGERS PASS  N/A       44  33  65 SE17G29    N/A
* SAINT MARY   N/A       40  37  89 S9G25      N/A   WCI  34
* SWEET GRASS  N/A       28  28 100 NE8        N/A   WCI  20
$$

MTZ011-013-016-021-035-040-045-047-050-051-272300-
NORTH CENTRAL MONTANA
CITY           SKY/WX    TMP DP  RH WIND       PRES   REMARKS
HAVRE          PTCLDY    54  37  53 SW16G24   29.69S
LEWISTOWN      SUNNY     54  36  51 W17       29.79R
* N BAR RANCH  SUNNY     55  30  39 W20G29    29.77F
* CHESTER      N/A       46  34  63 NE1        N/A
* DENTON       N/A       54  28  37 W11G16     N/A
* GEYSER       N/A       54  29  38 W18G26     N/A
* JUDITH GAP   N/A       50  29  44 SW28G41    N/A
* LOMA         N/A       58  38  47 SW28G40    N/A
$$

MTZ017>020-022>027-061-062-272300-
NORTHEAST MONTANA
CITY           SKY/WX    TMP DP  RH WIND       PRES   REMARKS
GLASGOW        PTCLDY    34  28  79 E10       29.74S WCI  26
GLENDIVE       PTSUNNY   37  28  70 S14       29.78F WCI  28
JORDAN         SUNNY     50  36  59 W9        29.74S
SIDNEY         CLOUDY    30  25  82 SE7       29.83F WCI  23
WOLF POINT     CLOUDY    34  28  79 E9        29.76F WCI  27
* BEAVER HILL  N/A       37  28  70 SW13       N/A   WCI  29
* CIRCLE       N/A       42  35  76 S5         N/A
* LINDSAY DVD  N/A       44  30  58 SW17G24    N/A
* NAVAJO       N/A       18  16  92 E9         N/A   WCI   7
* SACO         N/A       32  30  92 NE11       N/A   WCI  23
$$

MTZ028>042-056>058-272300-
SOUTHCENTRAL AND SOUTHEAST MONTANA
CITY           SKY/WX    TMP DP  RH WIND       PRES   REMARKS
BAKER          CLOUDY    39  28  65 SE6       29.80F WCI  35
BILLINGS       SUNNY     52  30  43 SW18G26   29.85R
LIVINGSTON     PTSUNNY   57  28  33 SW31G39   29.91R
MILES CITY     PTCLDY    43  34  71 SW5       29.80S
* LAUREL APT   SUNNY     48  25  41 SW6        N/A
* ALZADA       N/A       35  31  85 SE4        N/A
* HYSHAM       N/A       47  29  50 SW7G12     N/A
* LAME DEER    N/A       51  29  43 W12G19     N/A
* REED POINT   N/A       41  38  89 E6         N/A
* ROSCOE HILL  N/A       54  14  20 S16G38     N/A
$$

REGIONAL REPORTS...DAKOTAS
CITY           SKY/WX    TMP DP  RH WIND       PRES   REMARKS
WILLISTON      CLOUDY    19  16  88 SE10      29.86F WCI   8
DICKINSON      CLOUDY    25  19  78 S16       29.83F WCI  12
BEACH          PTSUNNY   32  27  82 S13       29.79F WCI  22
CROSBY         SNOW      19  19 100 E16       29.92R VSB 1/2  WCI   4
BISMARCK       SNOW      12   9  88 SE21      30.05F VSB 1/2  WCI  -7
GRAND FORKS    CLOUDY     3  -6  66 S13       30.31F WCI -14
FARGO          CLOUDY     9  -2  61 S13       30.32F WCI  -7
BUFFALO SD     PTSUNNY   30  23  75 S12       29.79F WCI  20
RAPID CITY     PTCLDY    36  28  73 SE9       29.89F WCI  29
$$

REGIONAL REPORTS...WYOMING/IDAHO/WASHINGTON
CITY           SKY/WX    TMP DP  RH WIND       PRES   REMARKS
GILLETTE       PTCLDY    46  30  54 SW18      29.89F
SHERIDAN       PTCLDY    52  28  40 W18       29.87S
CODY           PTCLDY    55  27  34 SW16G25   29.96R
YELLOWSTONE LA PTCLDY    37  28  70 VRB6      30.19R WCI  32
SALMON         PTSUNNY   39  36  89 CALM      30.00F
MULLAN PASS    LGT RAIN  36  36 100 SW12G24   29.88S WCI  28
SAND POINT     LGT RAIN  48  45  89 W3        29.79F
SPOKANE        PTSUNNY   54  45  72 SW17G25   29.81F
$$

REGIONAL REPORTS...ALBERTA
CITY           SKY/WX    TMP DP  RH WIND       PRES   REMARKS
EDMONTON       LGT SNOW   7   1  76 NE14G22   29.97R VSB 3/4  WCI -10
$$

REGIONAL REPORTS...SASKATCHEWAN
CITY           SKY/WX    TMP DP  RH WIND       PRES   REMARKS
SWIFT CURRENT  CLOUDY    19  18  96 E20G26    29.74F WCI   3

$$




USA.gov is the U.S. government's official web portal to all federal, state and local government web resources and services.